LANDSAT 3

导读

LANDSAT 3是美国于1978年3月5日发射的陆地卫星,属于NASA陆地卫星系列的第三颗成员星。它延续了 Landsat 系列对地观测任务,携带多光谱扫描仪等设备,持续获取全球陆地表面的多光谱遥感影像,为资源调查、环境监测、地理研究等领域提供了早期重要的遥感数据支撑。

Basic Information
目录编号:
10702
目录名称:
LANDSAT 3
国际标识:
1978-026A
轨道中心:
EARTH
卫星名称:
LANDSAT 3
卫星全名:
--
卫星状态:
在轨 (已飞行17726 天)
发射日期:
1978-03-05 UTC
国别 :
美国 (US)
星等 :
--
This satellite is enrolled in the Space Conjunction Data Service (SCDS) and the current flight risk assessment level is: No High Risk
Orbit Information
数据来源 国际轨道数据 AOE轨道数据
星历时间 2026-09-15T16:18:34+0800
15小时前
查看轨道信息
2026-09-14T06:00:00+0800
2天前
查看轨道信息
半长轴 7282.316km 7282.319km
偏心率 0.0013553 0.0013513
轨道倾角 99.078° 99.078°
近地点辐角 257.549° 262.080°
升交点赤经 212.350° 210.938°
平近点角 265.508° 275.340°
近地点 894.309km 894.341km
远地点 914.049km 914.023km
周期 103.078分钟 103.078分钟
每日圈数 13.970068 13.970059
Detailed Information
使用方式:
暂无
2D Orbit Map
3D Orbit Map
Orbit Altitude Analysis Chart
Orbit Inclination Analysis Chart
Orbit Comprehensive Analysis Chart
View Comprehensive Chart
Miss Distance Evolution Trend with All Objects Subscribe to Flight Safety Assessment
Collision Probability Evolution Trend with All Objects Subscribe to Flight Safety Assessment